This is the latest recevied weather packets stored in our database for station/object WD0REW. If no packets are shown the sender has not sent any weather packets the latest 10 day(s).
| Time | Temp. | Humidity | Pressure | Rain* | Wind** | Luminosity | Snow |
|---|---|---|---|---|---|---|---|
| 1777932737 | 26.11° C | 41% | 1006 hPa | 0 mm | - | 78 W/m² | - |
| 1777932434 | 26.11° C | 42% | 1006 hPa | 0 mm | - | 60 W/m² | - |
| 1777932132 | 26.11° C | 44% | 1006.1 hPa | 0 mm | - | 62 W/m² | - |
| 1777931828 | 26.11° C | 43% | 1006 hPa | 0 mm | - | 79 W/m² | - |
| 1777931525 | 26.67° C | 43% | 1006 hPa | 0 mm | - | 64 W/m² | - |
| 1777931221 | 26.11° C | 43% | 1005.9 hPa | 0 mm | - | 77 W/m² | - |
| 1777930918 | 26.11° C | 44% | 1006.2 hPa | 0 mm | - | 111 W/m² | - |
| 1777930614 | 26.11° C | 43% | 1006.3 hPa | 0 mm | - | 117 W/m² | - |
| 1777930311 | 26.67° C | 44% | 1006.2 hPa | 0 mm | - | 110 W/m² | - |
| 1777930007 | 26.67° C | 44% | 1006.4 hPa | 0 mm | - | 93 W/m² | - |
| 1777929704 | 26.67° C | 42% | 1006.1 hPa | 0 mm | - | 87 W/m² | - |
| 1777929402 | 26.67° C | 41% | 1006.4 hPa | 0 mm | - | 88 W/m² | - |
| 1777929098 | 26.67° C | 43% | 1006.4 hPa | 0 mm | - | 79 W/m² | - |
| 1777928796 | 27.22° C | 42% | 1006.4 hPa | 0 mm | - | 72 W/m² | - |
| 1777928492 | 26.67° C | 43% | 1006.8 hPa | 0 mm | - | 72 W/m² | - |
| 1777928190 | 26.67° C | 43% | 1006.5 hPa | 0 mm | - | 74 W/m² | - |
| 1777927887 | 26.67° C | 43% | 1006.6 hPa | 0 mm | - | 66 W/m² | - |
| 1777927585 | 26.67° C | 42% | 1006.4 hPa | 0 mm | - | 266 W/m² | - |
| 1777927284 | 26.67° C | 44% | 1006.6 hPa | 0 mm | - | 66 W/m² | - |
| 1777926983 | 27.22° C | 42% | 1006.6 hPa | 0 mm | - | 70 W/m² | - |
| 1777926680 | 27.22° C | 42% | 1006.9 hPa | 0 mm | - | 89 W/m² | - |
| 1777926380 | 27.22° C | 43% | 1007 hPa | 0 mm | - | 243 W/m² | - |
| 1777926077 | 27.78° C | 40% | 1007.1 hPa | 0 mm | - | 585 W/m² | - |
| 1777925774 | 27.22° C | 44% | 1007.1 hPa | 0 mm | - | 603 W/m² | - |
| 1777925472 | 27.78° C | 41% | 1007.3 hPa | 0 mm | - | 606 W/m² | - |
* Rain latest hour (hover to see other rain measurements)
** Current wind speed in m/s (hover to see current wind gust speed)